• In Portugal
  • List of Countries
  • For 7 days
  • Water Temperature
  • Satellite Maps
  • Weather Map
  • Weather Widgets
  • user-avatar
    Login

    Hourly Weather Kanye

    Today, 25 February, Sunday

    Time Temperature Precipitation Wind Pressure Humidity
    00:00 +18°C° 0 mm 2 mps 648 mmHg 88%
    01:00 +18°C° 0 mm 2 mps 647 mmHg 89%
    02:00 +18°C° 0 mm 1 mps 648 mmHg 89%
    03:00 +18°C° 0 mm 1 mps 648 mmHg 90%
    04:00 +18°C° 0 mm 1 mps 648 mmHg 90%
    05:00 +16°C° 0 mm 0 mps 648 mmHg 91%
    06:00 +19°C° 0 mm 1 mps 648 mmHg 85%
    07:00 +20°C° 0 mm 1 mps 649 mmHg 80%
    08:00 +21°C° 0 mm 1 mps 650 mmHg 74%
    09:00 +23°C° 0 mm 1 mps 650 mmHg 66%
    10:00 +26°C° 0 mm 1 mps 650 mmHg 58%
    11:00 +28°C° 0 mm 1 mps 651 mmHg 50%
    12:00 +29°C° 0 mm 1 mps 651 mmHg 44%
    13:00 +30°C° 0 mm 1 mps 650 mmHg 37%
    14:00 +32°C° 0 mm 1 mps 650 mmHg 31%
    15:00 +31°C° 0 mm 1 mps 650 mmHg 30%
    16:00 +31°C° 0 mm 2 mps 649 mmHg 28%
    17:00 +31°C° 0 mm 2 mps 649 mmHg 26%
    18:00 +29°C° 0 mm 2 mps 649 mmHg 29%
    19:00 +27°C° 0 mm 2 mps 648 mmHg 32%
    20:00 +25°C° 0 mm 2 mps 648 mmHg 35%
    21:00 +24°C° 0 mm 2 mps 648 mmHg 36%
    22:00 +23°C° 0 mm 2 mps 648 mmHg 37%
    23:00 +21°C° 0 mm 2 mps 648 mmHg 37%

    Tomorrow, 26 February, Monday

    Time Temperature Precipitation Wind Pressure Humidity
    00:00 +21°C° 0 mm 2 mps 648 mmHg 35%
    01:00 +20°C° 0 mm 2 mps 648 mmHg 33%
    02:00 +19°C° 0 mm 3 mps 648 mmHg 31%
    03:00 +19°C° 0 mm 3 mps 649 mmHg 38%
    04:00 +19°C° 0 mm 4 mps 649 mmHg 46%
    05:00 +19°C° 0 mm 4 mps 649 mmHg 54%
    06:00 +20°C° 0.1 mm 5 mps 650 mmHg 63%
    07:00 +20°C° 0.1 mm 6 mps 650 mmHg 72%
    08:00 +20°C° 0.1 mm 7 mps 651 mmHg 81%
    09:00 +20°C° 0.1 mm 7 mps 651 mmHg 78%
    10:00 +21°C° 0.1 mm 7 mps 651 mmHg 74%
    11:00 +21°C° 0.1 mm 7 mps 651 mmHg 71%
    12:00 +22°C° 0 mm 7 mps 651 mmHg 64%
    13:00 +24°C° 0 mm 7 mps 651 mmHg 57%
    14:00 +26°C° 0 mm 7 mps 652 mmHg 50%
    15:00 +26°C° 0 mm 6 mps 651 mmHg 50%
    16:00 +26°C° 0 mm 6 mps 651 mmHg 50%
    17:00 +26°C° 0 mm 5 mps 651 mmHg 50%
    18:00 +25°C° 0 mm 5 mps 651 mmHg 54%
    19:00 +22°C° 0 mm 4 mps 651 mmHg 59%
    20:00 +21°C° 0 mm 4 mps 651 mmHg 64%
    21:00 +20°C° 0 mm 3 mps 651 mmHg 67%
    22:00 +20°C° 0 mm 3 mps 652 mmHg 70%
    23:00 +19°C° 0 mm 3 mps 652 mmHg 73%

    Day after tomorrow, 27 February, Tuesday

    Time Temperature Precipitation Wind Pressure Humidity
    00:00 +18°C° 0 mm 3 mps 651 mmHg 77%
    01:00 +18°C° 0 mm 4 mps 651 mmHg 80%
    02:00 +17°C° 0 mm 4 mps 651 mmHg 83%
    03:00 +17°C° 0 mm 4 mps 651 mmHg 84%
    04:00 +17°C° 0 mm 4 mps 650 mmHg 86%
    05:00 +15°C° 0 mm 4 mps 650 mmHg 87%
    06:00 +17°C° 0 mm 4 mps 651 mmHg 83%
    07:00 +18°C° 0 mm 4 mps 652 mmHg 79%
    08:00 +19°C° 0 mm 4 mps 652 mmHg 76%
    09:00 +20°C° 0 mm 4 mps 652 mmHg 70%
    10:00 +22°C° 0 mm 4 mps 653 mmHg 63%
    11:00 +23°C° 0 mm 4 mps 653 mmHg 57%
    12:00 +25°C° 0 mm 4 mps 653 mmHg 53%
    13:00 +26°C° 0 mm 4 mps 652 mmHg 49%
    14:00 +28°C° 0 mm 4 mps 652 mmHg 44%
    15:00 +27°C° 0 mm 4 mps 652 mmHg 44%
    16:00 +27°C° 0 mm 4 mps 651 mmHg 45%
    17:00 +27°C° 0 mm 4 mps 651 mmHg 45%
    18:00 +25°C° 0 mm 4 mps 651 mmHg 53%
    19:00 +22°C° 0 mm 3 mps 651 mmHg 61%
    20:00 +21°C° 0 mm 3 mps 651 mmHg 69%
    21:00 +20°C° 0 mm 3 mps 651 mmHg 72%
    22:00 +20°C° 0 mm 2 mps 651 mmHg 74%
    23:00 +19°C° 0 mm 2 mps 651 mmHg 76%

    28 February, Wednesday

    Time Temperature Precipitation Wind Pressure Humidity
    00:00 +19°C° 0 mm 2 mps 651 mmHg 76%
    01:00 +20°C° 0 mm 1 mps 651 mmHg 76%
    02:00 +20°C° 0 mm 1 mps 650 mmHg 76%
    03:00 +20°C° 0 mm 1 mps 650 mmHg 77%
    04:00 +19°C° 0 mm 1 mps 650 mmHg 78%
    05:00 +19°C° 0 mm 1 mps 650 mmHg 79%
    06:00 +20°C° 0 mm 1 mps 651 mmHg 76%
    07:00 +21°C° 0 mm 1 mps 651 mmHg 72%
    08:00 +21°C° 0 mm 2 mps 652 mmHg 69%
    09:00 +23°C° 0.1 mm 2 mps 652 mmHg 65%
    10:00 +24°C° 0.1 mm 3 mps 652 mmHg 61%
    11:00 +25°C° 0.1 mm 4 mps 653 mmHg 56%
    12:00 +25°C° 0.1 mm 4 mps 652 mmHg 57%
    13:00 +25°C° 0.1 mm 4 mps 651 mmHg 57%
    14:00 +23°C° 0.1 mm 4 mps 650 mmHg 57%
    15:00 +23°C° 0.1 mm 4 mps 650 mmHg 57%
    16:00 +23°C° 0.1 mm 4 mps 650 mmHg 57%
    17:00 +23°C° 0.1 mm 4 mps 650 mmHg 57%
    18:00 +22°C° 0 mm 3 mps 650 mmHg 60%
    19:00 +21°C° 0 mm 2 mps 650 mmHg 63%
    20:00 +20°C° 0 mm 2 mps 650 mmHg 66%
    21:00 +20°C° 0.1 mm 2 mps 651 mmHg 67%
    22:00 +20°C° 0.1 mm 2 mps 651 mmHg 68%
    23:00 +20°C° 0.1 mm 2 mps 651 mmHg 69%

    1 March, Thursday

    Time Temperature Precipitation Wind Pressure Humidity
    00:00 +19°C° 0 mm 2 mps 650 mmHg 70%
    01:00 +19°C° 0 mm 2 mps 650 mmHg 70%
    02:00 +18°C° 0 mm 2 mps 649 mmHg 71%
    03:00 +18°C° 0 mm 2 mps 649 mmHg 73%
    04:00 +18°C° 0 mm 2 mps 649 mmHg 74%
    05:00 +18°C° 0 mm 2 mps 649 mmHg 76%
    06:00 +19°C° 0 mm 2 mps 650 mmHg 74%
    07:00 +20°C° 0 mm 3 mps 651 mmHg 72%
    08:00 +21°C° 0 mm 3 mps 651 mmHg 70%
    09:00 +22°C° 0.2 mm 4 mps 652 mmHg 64%
    10:00 +25°C° 0.2 mm 4 mps 652 mmHg 59%
    11:00 +26°C° 0.2 mm 5 mps 652 mmHg 53%
    12:00 +27°C° 0 mm 5 mps 652 mmHg 50%
    13:00 +27°C° 0 mm 5 mps 652 mmHg 47%
    14:00 +28°C° 0 mm 5 mps 651 mmHg 44%
    15:00 +28°C° 0 mm 5 mps 651 mmHg 43%
    16:00 +28°C° 0 mm 5 mps 651 mmHg 42%
    17:00 +27°C° 0 mm 4 mps 650 mmHg 41%
    18:00 +25°C° 0 mm 4 mps 650 mmHg 49%
    19:00 +22°C° 0 mm 3 mps 650 mmHg 56%
    20:00 +20°C° 0 mm 3 mps 649 mmHg 63%
    21:00 +20°C° 0 mm 2 mps 649 mmHg 66%
    22:00 +19°C° 0 mm 2 mps 649 mmHg 68%
    23:00 +18°C° 0 mm 2 mps 649 mmHg 71%

    2 March, Friday

    Time Temperature Precipitation Wind Pressure Humidity
    00:00 +19°C° 0 mm 1 mps 649 mmHg 72%
    01:00 +19°C° 0 mm 1 mps 649 mmHg 73%
    02:00 +19°C° 0 mm 1 mps 649 mmHg 74%
    03:00 +19°C° 0 mm 1 mps 649 mmHg 74%
    04:00 +19°C° 0 mm 1 mps 649 mmHg 74%
    05:00 +19°C° 0 mm 1 mps 649 mmHg 74%
    06:00 +18°C° 0 mm 2 mps 650 mmHg 73%
    07:00 +19°C° 0 mm 3 mps 651 mmHg 71%
    08:00 +20°C° 0 mm 4 mps 651 mmHg 69%
    09:00 +21°C° 0 mm 4 mps 651 mmHg 64%
    10:00 +22°C° 0 mm 5 mps 652 mmHg 59%
    11:00 +23°C° 0 mm 5 mps 652 mmHg 54%
    12:00 +25°C° 0 mm 5 mps 652 mmHg 50%
    13:00 +25°C° 0 mm 5 mps 651 mmHg 46%
    14:00 +26°C° 0 mm 5 mps 651 mmHg 43%
    15:00 +26°C° 0 mm 5 mps 651 mmHg 44%
    16:00 +25°C° 0 mm 5 mps 650 mmHg 44%
    17:00 +25°C° 0 mm 4 mps 650 mmHg 45%
    18:00 +22°C° 0 mm 4 mps 650 mmHg 50%
    19:00 +21°C° 0 mm 4 mps 650 mmHg 55%
    20:00 +19°C° 0 mm 4 mps 650 mmHg 59%
    21:00 +18°C° 0 mm 3 mps 650 mmHg 60%
    22:00 +18°C° 0 mm 3 mps 650 mmHg 61%
    23:00 +17°C° 0 mm 3 mps 650 mmHg 62%
    Show more